Zurück zum Katalog

FENGYUN 1C DEB

AktivSSO
NORAD 30549·DEBRIS·🇨🇳 China

Gestartet May 10, 1999 von Taiyuan Satellite Launch Center

Loading…

Nächste Überflüge (nächste 24 Stunden)

TLE

AktuellSource: Space-Track

Epoche: Sep 14, 2026, 13:08 UTC

1 30549U 99025AKP 26257.54728244  .00002220  00000-0  10672-2 0  9998
2 30549  98.4873   3.3780 0287995 202.2808 156.5636 14.00287277991521

Verfolge FENGYUN 1C DEB in Echtzeit mit AllMySat

Download on the App Store